(152199) = 2005 QG104

Discovered at Palomar on 2005-08-27 by NEAT.

Orbit

Orbit type: Main Belt

Note: WebGL enabled browser required.

epoch2024-03-31.0
epoch JD2460400.5
perihelion date2023-11-16.46196
perihelion JD2460264.96196
argument of perihelion (°)283.32863
ascending node (°)187.04711
inclination (°)4.70441
eccentricity0.1868737
perihelion distance (AU)2.1314290
Tisserand w.r.t. Jupiter3.4
ΔV w.r.t. Earth (km/sec)9.3
semimajor axis (AU)2.6212765
mean anomaly (°)31.47718
mean daily motion (°/day)0.23223870
aphelion distance (AU)3.111
period (years)4.24
P-vector [x]-0.34777289
P-vector [y]0.88883487
P-vector [z]0.29837324
Q-vector [x]-0.93752481
Q-vector [y]-0.32625816
Q-vector [z]-0.12084222
absolute magnitude16.92
phase slope0.15
uncertainty0
referenceMPEC 2024-E73
observations used349
oppositions12
arc length (days)8203
first opposition used2001
last opposition used2024
residual rms (arc-secs)0.79
perturbers coarse indicatorM-v
perturbers precise indicator003Ek
first observation date used2001-09-19.0
last observation date used2024-03-05.0
computer nameMPCLINUX
JD of orbit computation2456966.842882
perihelion JD uncertainty (days)8.6978E-05
argument of perihelion uncertainty (°)6.9457E-05
ascending node uncertainty (°)6.5880E-05
inclination uncertainty (°)7.9591E-06
eccentricity uncertainty 5.3740E-08
perihelion distance uncertainty (AU)1.4850E-07
Minimum Orbit Intersection Distances (in AU)
for orbit epoch: 2460400.5, reference: E2024-GF4
Mercury1.81882
Venus1.41946
Earth1.15434
Mars0.5365
Jupiter2.034
Saturn6.79564
Uranus16.0194
Neptune27.0776

Observations

361 total observations over interval: 2001 09 19.33640 – 2024 03 05.177035
These data are available for download (format description).

Date (UT) J2000 RA J2000 Dec Magn Location Ref
2001 09 19.33640 00 52 43.33 +05 38 37.8 19.9   704 – Lincoln Laboratory ETS, New Mexico MPS 178530
2001 09 19.36467 00 52 42.10 +05 38 27.0 20.5   704 – Lincoln Laboratory ETS, New Mexico MPS 178530
2001 09 19.37882 00 52 41.51 +05 38 22.6 20.3   704 – Lincoln Laboratory ETS, New Mexico MPS 178530
2001 10 18.14262 00 29 34.76 +02 14 31.1 20.9 V 691 – Steward Observatory, Kitt Peak-Spacewatch MPS 178530
2001 10 18.16360 00 29 33.75 +02 14 22.6 20.7 V 691 – Steward Observatory, Kitt Peak-Spacewatch MPS 178530
2001 10 18.18451 00 29 32.79 +02 14 14.3 21.2 V 691 – Steward Observatory, Kitt Peak-Spacewatch MPS 178530
2003 03 07.28984 11 43 38.16 -00 35 23.5 19.2 R 699 – Lowell Observatory-LONEOS MPS 178530
2003 03 07.30592 11 43 37.35 -00 35 15.7   699 – Lowell Observatory-LONEOS MPS 178530
2003 03 07.32187 11 43 36.55 -00 35 07.2   699 – Lowell Observatory-LONEOS MPS 178530
2003 03 07.33784 11 43 35.62 -00 35 00.5   699 – Lowell Observatory-LONEOS MPS 178530
2003 03 25.31745 11 29 12.25 +01 45 37.2 19.8 R 699 – Lowell Observatory-LONEOS MPS 178530
2003 03 25.33773 11 29 11.37 +01 45 45.6   699 – Lowell Observatory-LONEOS MPS 178530
2003 03 25.35267 11 29 10.65 +01 45 52.9   699 – Lowell Observatory-LONEOS MPS 178530
2003 03 25.36761 11 29 09.88 +01 46 00.2   699 – Lowell Observatory-LONEOS MPS 178530
2003 04 07.14628 11 21 09.90 +03 12 21.0 20.8 V 691 – Steward Observatory, Kitt Peak-Spacewatch MPS 178530
2003 04 07.17226 11 21 09.11 +03 12 30.4 20.5 V 691 – Steward Observatory, Kitt Peak-Spacewatch MPS 178530
2003 04 07.19911 11 21 08.25 +03 12 39.6 21.5 V 691 – Steward Observatory, Kitt Peak-Spacewatch MPS 178530
2005 08 27.37017 23 20 12.97 -01 14 51.3 21.3   644 – Palomar Mountain/NEAT MPS 140354
2005 08 27.39556 23 20 11.82 -01 14 59.1 21.4   644 – Palomar Mountain/NEAT MPS 140354
2005 08 27.42188 23 20 10.60 -01 15 08.6 20.9   644 – Palomar Mountain/NEAT MPS 140354
2005 08 31.24922 23 17 16.84 -01 37 57.0 20.6 V 691 – Steward Observatory, Kitt Peak-Spacewatch MPS 140354
2005 08 31.26655 23 17 16.02 -01 38 03.3 20.9 V 691 – Steward Observatory, Kitt Peak-Spacewatch MPS 140354
2005 08 31.28389 23 17 15.16 -01 38 09.9 20.8 V 691 – Steward Observatory, Kitt Peak-Spacewatch MPS 140354
2005 09 13.24804 23 06 40.42 -03 03 21.4 20.8 V 691 – Steward Observatory, Kitt Peak-Spacewatch MPS 141765
2005 09 13.26550 23 06 39.54 -03 03 28.8 20.9 V 691 – Steward Observatory, Kitt Peak-Spacewatch MPS 141765
2005 09 13.28636 23 06 38.45 -03 03 37.2 20.5 V 691 – Steward Observatory, Kitt Peak-Spacewatch MPS 141765
2007 01 25.29826 09 08 15.21 +09 00 22.7 18.7 V 703 – Catalina Sky Survey MPS 197061
2007 01 25.31869 09 08 14.20 +09 00 27.9 18.5 V 703 – Catalina Sky Survey MPS 197061
2007 01 25.32891 09 08 13.70 +09 00 33.0 19.0 V 703 – Catalina Sky Survey MPS 197061
2007 02 06.35479 08 57 52.71 +10 05 53.6 19.2 R 644 – Palomar Mountain/NEAT MPS 198714
2007 02 06.37520 08 57 51.61 +10 06 01.4 19.1 R 644 – Palomar Mountain/NEAT MPS 198714
2007 02 06.39562 08 57 50.52 +10 06 08.1 19.2 R 644 – Palomar Mountain/NEAT MPS 198714
2007 02 11.152862 08 53 51.01 +10 35 04.3 20.3   H55 – Astronomical Research Observatory, Charleston MPS 200385
2007 02 11.158719 08 53 50.71 +10 35 06.5 20.2   H55 – Astronomical Research Observatory, Charleston MPS 200385
2007 02 11.164508 08 53 50.43 +10 35 08.5 20.2   H55 – Astronomical Research Observatory, Charleston MPS 200385
2007 02 17.23153 08 49 10.48 +11 12 38.1 19.1 V 703 – Catalina Sky Survey MPS 200385
2007 02 17.23802 08 49 10.12 +11 12 40.6 19.4 V 703 – Catalina Sky Survey MPS 200385
2007 02 17.24449 08 49 09.91 +11 12 43.0 19.2 V 703 – Catalina Sky Survey MPS 200385
2007 02 17.25095 08 49 09.55 +11 12 45.1 19.2 V 703 – Catalina Sky Survey MPS 200385
2012 03 28.44596 15 57 15.84 -16 33 32.9 21.1 V G96 – Mt. Lemmon Survey MPS 419830
2012 03 28.45179 15 57 15.76 -16 33 32.3 21.3 V G96 – Mt. Lemmon Survey MPS 419830
2012 03 28.45756 15 57 15.69 -16 33 30.8 21.0 V G96 – Mt. Lemmon Survey MPS 419830
2012 03 28.46338 15 57 15.66 -16 33 29.7 20.9 V G96 – Mt. Lemmon Survey MPS 419830
2012 05 12.35050 15 29 41.78 -13 33 20.1 20.4 V G96 – Mt. Lemmon Survey MPS 424678
2012 05 12.35808 15 29 41.38 -13 33 18.1 20.3 V G96 – Mt. Lemmon Survey MPS 424678
2012 05 12.36556 15 29 40.99 -13 33 16.1 20.3 V G96 – Mt. Lemmon Survey MPS 424678
2012 05 20.35566 15 22 29.550 -12 59 25.45 20.6 g F51 – Pan-STARRS 1, Haleakala MPS 425732
2012 05 20.36661 15 22 28.966 -12 59 22.92 21.1 g F51 – Pan-STARRS 1, Haleakala MPS 425732
2012 06 07.28286 15 08 44.325 -12 01 53.23 20.7 r F51 – Pan-STARRS 1, Haleakala MPS 427074
2012 06 07.29018 15 08 44.052 -12 01 52.21 20.9 r F51 – Pan-STARRS 1, Haleakala MPS 427074
2012 06 13.24014 15 05 25.04 -11 50 26.4 21.0 V G96 – Mt. Lemmon Survey MPS 427074
2012 06 13.24648 15 05 24.86 -11 50 25.8 21.5 V G96 – Mt. Lemmon Survey MPS 427074
2012 06 13.25279 15 05 24.61 -11 50 23.8 21.4 V G96 – Mt. Lemmon Survey MPS 427074
2012 06 13.25918 15 05 24.46 -11 50 23.8 21.6 V G96 – Mt. Lemmon Survey MPS 427074
2013 07 12.49043 20 55 39.118 -11 07 31.75 21.6 w F51 – Pan-STARRS 1, Haleakala MPS 472422
2013 07 12.50540 20 55 38.427 -11 07 34.17 21.4 w F51 – Pan-STARRS 1, Haleakala MPS 472422
2013 07 12.52038 20 55 37.754 -11 07 36.11 22.0 w F51 – Pan-STARRS 1, Haleakala MPS 472422
2013 07 12.53538 20 55 37.099 -11 07 38.65 21.5 w F51 – Pan-STARRS 1, Haleakala MPS 472422
2014 08 31.54328 03 14 02.643 +15 52 24.34 21.4 w F51 – Pan-STARRS 1, Haleakala MPS 530886
2014 08 31.55630 03 14 03.165 +15 52 24.65 21.5 w F51 – Pan-STARRS 1, Haleakala MPS 530886
2014 08 31.56925 03 14 03.687 +15 52 25.11 21.3 w F51 – Pan-STARRS 1, Haleakala MPS 530886
2014 08 31.58223 03 14 04.204 +15 52 25.17 21.2 w F51 – Pan-STARRS 1, Haleakala MPS 530886
2014 10 07.40139 03 22 57.964 +14 45 02.46 20.2 i F51 – Pan-STARRS 1, Haleakala MPS 539928
2014 10 07.42683 03 22 57.504 +14 44 55.90 20.3 i F51 – Pan-STARRS 1, Haleakala MPS 539928
2014 10 07.43935 03 22 57.270 +14 44 53.35 20.1 i F51 – Pan-STARRS 1, Haleakala MPS 539928
2014 10 15.30161 03 19 55.56 +14 08 58.5 20.5 V 691 – Steward Observatory, Kitt Peak-Spacewatch MPS 539928
2014 10 15.32199 03 19 54.92 +14 08 52.9 20.4 V 691 – Steward Observatory, Kitt Peak-Spacewatch MPS 539928
2014 10 15.34237 03 19 54.24 +14 08 46.2 20.4 V 691 – Steward Observatory, Kitt Peak-Spacewatch MPS 539928
2014 10 19.18890 03 17 48.23 +13 48 51.1 20.0 V 691 – Steward Observatory, Kitt Peak-Spacewatch MPS 541640
2014 10 19.20928 03 17 47.50 +13 48 44.9 19.9 V 691 – Steward Observatory, Kitt Peak-Spacewatch MPS 541640
2014 10 19.22968 03 17 46.71 +13 48 37.8 19.9 V 691 – Steward Observatory, Kitt Peak-Spacewatch MPS 541640
2014 10 23.23824 03 15 11.40 +13 26 29.5 20.0 V 691 – Steward Observatory, Kitt Peak-Spacewatch MPS 541640
2014 10 23.25854 03 15 10.52 +13 26 22.7 20.1 V 691 – Steward Observatory, Kitt Peak-Spacewatch MPS 541640
2014 10 23.27882 03 15 09.64 +13 26 15.7 20.0 V 691 – Steward Observatory, Kitt Peak-Spacewatch MPS 541640
2014 10 23.32826 03 15 07.49 +13 25 59.4 20.2 r G45 – Space Surveillance Telescope, Atom Site MPS 556859
2014 10 23.34056 03 15 06.96 +13 25 54.6 20.2 r G45 – Space Surveillance Telescope, Atom Site MPS 556859
2014 10 23.35222 03 15 06.45 +13 25 50.7 19.9 r G45 – Space Surveillance Telescope, Atom Site MPS 556859
2014 10 23.36360 03 15 05.94 +13 25 47.0 20.3 r G45 – Space Surveillance Telescope, Atom Site MPS 556859
2014 10 24.30945 03 14 26.03 +13 20 22.5 20.6 r G45 – Space Surveillance Telescope, Atom Site MPS 556859
2014 10 24.32189 03 14 25.49 +13 20 18.1 19.7 r G45 – Space Surveillance Telescope, Atom Site MPS 556859
2014 10 24.33425 03 14 24.94 +13 20 13.6 20.6 r G45 – Space Surveillance Telescope, Atom Site MPS 556859
2014 10 24.34598 03 14 24.40 +13 20 09.6 20.5 r G45 – Space Surveillance Telescope, Atom Site MPS 556859
2014 10 24.35804 03 14 23.85 +13 20 05.3 20.3 r G45 – Space Surveillance Telescope, Atom Site MPS 556859
2014 10 25.51523 03 13 33.235 +13 13 25.05 19.7 w F51 – Pan-STARRS 1, Haleakala MPS 543565
2014 10 25.52825 03 13 32.629 +13 13 20.45 19.9 w F51 – Pan-STARRS 1, Haleakala MPS 543565
2014 10 25.54120 03 13 32.023 +13 13 15.85 19.8 w F51 – Pan-STARRS 1, Haleakala MPS 543565
